Temp
45 45 45 44 44 44 42 41 41 41 40 40 39 39 39 39 38 37 36 36 36 36 35 34 34 33 33 32 32 31 31 31 30 29 29 30 29 29 29 28 28 28
44 44 44 43 42 42 42 42 41 42 41 40 41 40 39 38 37 37 36 36 35 35 35 34 33 33 32 32 31 31 31 30 30 30 29 29 29 28 28 28 28 27
43 43 43 42 43 42 41 41 41 41 41 41 40 39 38 37 36 36 36 36 35 35 34 34 33 33 32 32 31 32 31 30 30 29 29 29 28 28 28 27 27 27
43 43 43 43 42 41 41 40 40 40 39 38 38 38 37 37 36 35 35 35 35 34 34 33 33 33 32 32 31 32 31 31 30 29 28 28 27 28 27 27 27 27
41 42 42 42 42 41 40 39 39 39 38 38 37 36 36 35 35 35 35 35 34 34 33 32 32 32 32 31 31 31 30 30 29 28 28 28 27 27 27 27 26 26
40 41 41 41 40 40 40 40 39 38 38 37 38 37 36 36 36 35 35 34 34 34 33 32 32 32 31 31 31 32 30 29 28 28 28 27 26 27 27 27 26 26
40 39 40 40 38 39 39 39 39 38 38 38 35 36 36 35 35 35 35 35 34 34 33 32 32 31 31 31 31 31 30 30 28 28 28 27 26 26 26 26 26 26
39 38 39 38 39 38 39 39 38 38 38 36 36 36 36 35 35 35 35 35 34 33 33 33 32 32 31 31 31 31 29 29 28 27 27 26 25 25 25 26 26 25
37 38 37 37 38 39 39 39 39 39 37 37 36 35 35 36 35 35 35 34 34 34 33 33 32 32 32 31 31 31 30 29 28 27 27 26 25 25 25 25 25 24
38 39 37 38 38 40 40 40 41 40 38 38 37 36 35 35 35 35 34 34 34 33 33 33 32 32 31 31 31 31 30 29 28 28 28 27 27 26 25 25 25 24
39 39 38 38 39 40 40 41 41 41 39 38 37 36 35 35 35 35 34 33 33 33 33 33 33 32 31 31 31 32 31 30 28 28 28 28 27 27 27 25 25 25
38 38 38 39 39 40 40 41 40 39 38 37 37 37 35 35 35 34 34 34 34 34 34 33 33 32 32 31 31 31 30 30 29 28 28 28 27 27 26 25 25 25
39 39 39 39 40 40 41 40 39 39 38 37 37 37 36 35 35 35 35 35 35 35 34 34 33 33 32 31 31 31 30 29 28 28 28 27 27 26 26 25 25 25
39 40 40 40 41 40 39 39 39 38 38 37 36 36 36 35 35 35 35 35 35 35 35 35 34 33 32 31 31 31 30 29 29 27 27 27 26 25 25 25 25 24
40 40 40 40 40 39 38 38 38 38 37 37 36 36 36 36 35 35 35 34 35 35 35 34 33 33 32 31 31 30 30 29 28 27 27 26 25 24 24 24 24 23
40 39 39 39 38 38 38 38 38 37 36 35 35 35 35 35 34 34 35 34 34 34 34 33 33 33 33 34 34 31 29 29 27 26 26 26 25 24 23 23 23 23
38 38 38 37 38 37 36 36 36 36 35 34 33 33 33 33 33 33 33 34 33 33 32 32 33 33 34 36 36 35 31 28 27 26 26 26 25 24 22 22 21 21
37 37 36 36 36 35 34 34 34 33 33 33 32 31 32 31 32 33 33 34 33 33 32 32 32 34 35 36 36 36 33 29 28 26 26 26 25 24 23 22 19 19
36 34 34 34 34 34 33 32 31 32 31 31 30 31 31 31 32 33 32 33 33 32 32 32 32 35 36 36 36 36 35 32 28 26 25 25 25 24 23 22 19 19
34 33 33 33 33 31 31 30 29 31 32 32 31 30 30 31 31 31 31 31 32 32 32 31 31 34 36 36 36 36 35 33 27 26 25 25 25 24 22 20 20 19
33 32 32 31 31 29 28 29 30 31 31 31 31 31 30 30 30 30 30 30 30 31 31 30 30 34 36 36 36 36 36 33 26 26 25 24 23 23 22 21 21 21
32 31 31 30 29 27 26 28 28 29 29 30 29 30 30 30 31 30 30 29 30 30 30 29 30 34 35 36 36 36 36 30 25 24 23 23 22 22 22 22 22 21
31 30 29 29 29 27 26 27 28 28 28 28 27 28 29 29 29 30 30 29 29 28 28 28 27 32 35 35 36 36 34 27 24 23 22 22 21 22 22 22 22 21
29 28 28 28 28 27 27 28 27 27 27 28 28 28 28 28 29 29 29 29 28 27 28 27 26 30 34 35 36 36 33 24 23 22 21 21 20 21 21 21 22 24
29 28 28 28 27 28 27 27 28 28 29 28 28 28 28 28 27 28 27 27 28 27 29 28 25 28 34 35 36 36 32 23 23 22 20 20 19 18 21 21 22 24
30 29 28 27 27 27 27 26 26 25 26 27 27 27 27 27 26 27 26 26 26 26 26 28 26 26 31 35 36 36 33 24 23 22 19 19 18 19 18 19 21 22
MSLP
1007.93 1008.17 1008.29 1008.49 1008.45 1008.49 1008.93 1009.29 1009.69 1010.09 1010.61 1011.05 1011.29 1011.49 1011.77 1012.05 1012.89 1013.37 1013.81 1014.37 1014.69 1015.05 1015.49 1015.93 1016.37 1016.85 1017.25 1017.65 1018.05 1018.45 1018.81 1019.09 1019.37 1019.61 1019.77 1019.93 1020.13 1020.33 1020.53 1020.73 1021.01 1021.13
1007.45 1007.81 1008.13 1008.45 1008.69 1008.81 1008.89 1008.97 1009.09 1009.25 1009.65 1010.09 1010.41 1010.93 1011.53 1012.13 1012.57 1013.09 1013.53 1013.93 1014.45 1014.81 1015.25 1015.69 1016.09 1016.41 1016.81 1017.25 1017.69 1018.05 1018.53 1018.89 1019.17 1019.53 1019.69 1019.89 1020.13 1020.45 1020.53 1020.77 1020.93 1021.29
1007.01 1007.33 1007.73 1008.05 1008.37 1008.77 1009.05 1009.25 1009.29 1009.29 1009.33 1009.53 1010.05 1010.53 1011.05 1011.65 1012.29 1012.77 1013.29 1013.69 1014.13 1014.57 1015.05 1015.45 1015.89 1016.21 1016.53 1016.89 1017.33 1017.73 1018.09 1018.53 1018.89 1019.33 1019.53 1019.73 1020.13 1020.33 1020.53 1020.81 1021.01 1021.17
1006.89 1006.81 1006.85 1007.21 1007.77 1008.33 1008.93 1009.29 1009.37 1009.37 1009.41 1009.61 1009.69 1010.17 1010.73 1011.29 1011.81 1012.45 1012.97 1013.45 1013.89 1014.33 1014.77 1015.21 1015.49 1015.93 1016.25 1016.61 1017.01 1017.37 1017.69 1018.13 1018.49 1019.05 1019.37 1019.77 1020.05 1020.21 1020.45 1020.69 1020.93 1021.25
1006.81 1006.85 1006.85 1006.89 1007.05 1007.53 1008.25 1008.85 1009.13 1009.25 1009.21 1009.21 1009.61 1009.89 1010.33 1010.89 1011.49 1012.09 1012.53 1012.97 1013.41 1013.89 1014.45 1014.85 1015.29 1015.65 1016.05 1016.41 1016.69 1017.01 1017.49 1017.89 1018.41 1018.81 1019.13 1019.45 1019.85 1020.05 1020.29 1020.49 1020.77 1021.05
1006.89 1006.93 1007.09 1007.25 1007.41 1007.45 1007.61 1007.93 1008.45 1009.05 1009.37 1009.53 1009.21 1009.53 1009.73 1010.17 1010.57 1011.05 1011.57 1012.13 1012.69 1013.21 1013.81 1014.41 1014.85 1015.29 1015.69 1016.01 1016.45 1016.61 1017.05 1017.53 1018.05 1018.45 1018.81 1019.09 1019.61 1019.93 1020.13 1020.33 1020.57 1020.89
1006.57 1006.81 1006.93 1007.25 1007.53 1007.57 1007.61 1007.69 1008.13 1008.61 1008.97 1009.17 1009.61 1009.57 1009.65 1009.97 1010.29 1010.69 1011.17 1011.57 1012.05 1012.45 1012.93 1013.45 1014.01 1014.61 1015.13 1015.57 1015.97 1016.29 1016.73 1017.05 1017.65 1018.01 1018.29 1018.81 1019.29 1019.73 1019.97 1020.17 1020.37 1020.65
1007.09 1007.05 1007.09 1007.21 1007.29 1007.49 1007.49 1007.57 1007.73 1008.01 1008.49 1009.13 1009.17 1009.37 1009.57 1009.61 1009.89 1010.33 1010.73 1011.21 1011.65 1011.97 1012.37 1012.77 1013.21 1013.65 1014.21 1014.69 1015.21 1015.73 1016.25 1016.69 1017.17 1017.53 1017.89 1018.41 1018.93 1019.29 1019.61 1019.89 1020.13 1020.45
1008.01 1007.77 1007.57 1007.37 1007.25 1007.13 1007.13 1007.25 1007.45 1007.73 1008.01 1008.21 1008.57 1009.05 1009.45 1009.57 1009.65 1009.93 1010.29 1010.81 1011.29 1011.69 1012.05 1012.41 1012.61 1012.97 1013.49 1013.93 1014.37 1014.77 1015.33 1016.01 1016.49 1016.89 1017.25 1017.73 1018.29 1018.61 1019.09 1019.45 1019.85 1020.17
1007.05 1007.25 1007.53 1007.41 1007.21 1006.81 1006.69 1006.45 1006.45 1006.73 1007.21 1007.61 1007.85 1008.29 1008.69 1009.05 1009.41 1009.65 1010.01 1010.29 1010.69 1011.25 1011.61 1011.81 1012.21 1012.45 1012.81 1013.17 1013.53 1013.93 1014.53 1015.13 1015.77 1016.29 1016.57 1016.97 1017.33 1017.85 1018.41 1018.81 1019.05 1019.57
1006.61 1006.81 1006.93 1006.97 1006.89 1006.65 1006.33 1006.17 1006.33 1006.45 1006.77 1006.93 1007.45 1007.81 1007.97 1008.37 1008.77 1009.13 1009.45 1009.77 1009.97 1010.29 1010.77 1011.25 1011.49 1011.81 1012.21 1012.65 1013.01 1013.33 1013.77 1014.33 1014.93 1015.41 1015.77 1016.13 1016.53 1016.97 1017.45 1017.93 1018.33 1018.53
1006.53 1006.73 1006.61 1006.37 1006.21 1006.05 1005.77 1005.81 1006.01 1006.21 1006.45 1006.81 1006.89 1007.09 1007.69 1007.89 1007.97 1008.29 1008.49 1008.77 1009.09 1009.53 1010.05 1010.61 1011.21 1011.53 1011.65 1011.89 1012.33 1012.85 1013.33 1013.73 1014.09 1014.49 1014.85 1015.33 1015.85 1016.33 1016.77 1017.25 1017.57 1017.93
1006.25 1006.29 1006.17 1006.05 1005.85 1005.49 1005.41 1005.57 1005.57 1005.65 1005.93 1006.17 1006.45 1006.61 1006.81 1007.17 1007.57 1007.77 1007.73 1007.81 1008.13 1008.69 1009.25 1009.81 1010.49 1011.01 1011.37 1011.65 1011.93 1012.25 1012.61 1013.01 1013.49 1013.93 1014.29 1014.73 1015.17 1015.61 1016.09 1016.57 1016.97 1017.37
1006.01 1005.77 1005.61 1005.41 1005.25 1005.21 1005.21 1005.13 1005.17 1005.17 1005.17 1005.41 1006.01 1006.17 1006.17 1006.33 1006.57 1006.89 1007.25 1007.45 1007.45 1007.81 1008.25 1008.93 1009.65 1010.29 1010.73 1011.05 1011.29 1011.49 1011.85 1012.17 1012.53 1013.05 1013.61 1014.13 1014.65 1015.21 1015.65 1016.05 1016.41 1016.85
1005.61 1005.41 1005.25 1005.09 1004.93 1004.81 1004.69 1004.65 1004.65 1004.65 1004.81 1005.05 1005.29 1005.45 1005.65 1005.69 1005.97 1006.45 1006.85 1007.25 1007.29 1007.21 1007.49 1008.01 1008.53 1008.93 1009.41 1009.93 1010.45 1010.93 1011.17 1011.45 1011.85 1012.33 1012.89 1013.49 1014.13 1014.73 1015.21 1015.69 1016.13 1016.49
1005.65 1005.41 1005.13 1004.85 1004.69 1004.49 1004.33 1004.21 1004.25 1004.37 1004.61 1004.73 1004.69 1004.81 1005.17 1005.57 1005.97 1006.29 1006.53 1006.69 1007.05 1007.29 1007.33 1007.49 1007.61 1007.89 1008.33 1008.85 1009.29 1009.77 1010.49 1011.05 1011.65 1012.09 1012.45 1012.89 1013.49 1014.21 1014.85 1015.25 1015.61 1016.05
1005.65 1005.37 1005.13 1004.85 1004.53 1004.33 1004.09 1004.01 1003.97 1004.01 1004.13 1004.21 1004.41 1004.69 1004.89 1005.17 1005.61 1005.89 1006.01 1006.25 1006.57 1006.81 1007.05 1007.01 1006.97 1007.13 1007.61 1008.25 1008.73 1009.29 1009.89 1010.53 1011.05 1011.57 1012.01 1012.45 1012.93 1013.45 1014.01 1014.69 1015.33 1015.81
1005.89 1005.49 1005.21 1004.85 1004.61 1004.33 1004.05 1003.85 1003.69 1003.73 1003.81 1003.93 1004.17 1004.37 1004.61 1005.05 1005.21 1005.05 1005.37 1005.93 1006.29 1006.53 1006.65 1006.57 1006.65 1006.85 1007.29 1007.69 1008.17 1008.69 1009.25 1009.85 1010.45 1011.05 1011.57 1011.93 1012.37 1012.89 1013.49 1014.25 1014.89 1015.57
1005.97 1005.69 1005.45 1005.13 1004.85 1004.45 1004.17 1004.01 1003.85 1003.69 1003.61 1003.73 1003.81 1003.93 1004.37 1004.45 1004.41 1004.97 1005.21 1005.41 1005.85 1006.09 1006.21 1006.33 1006.57 1006.73 1007.01 1007.33 1007.77 1008.25 1008.81 1009.53 1010.21 1010.65 1011.05 1011.37 1011.81 1012.37 1012.93 1013.65 1014.57 1015.25
1006.21 1005.85 1005.53 1005.29 1004.97 1004.69 1004.37 1004.05 1003.89 1003.61 1003.37 1003.37 1003.45 1003.81 1003.97 1004.13 1004.41 1004.57 1004.77 1005.09 1005.25 1005.57 1005.93 1006.21 1006.41 1006.57 1006.77 1007.09 1007.45 1007.89 1008.37 1008.97 1009.73 1010.29 1010.69 1011.01 1011.33 1011.85 1012.45 1013.17 1013.81 1014.41
1006.53 1006.09 1005.65 1005.29 1005.05 1004.77 1004.41 1004.09 1003.81 1003.57 1003.41 1003.25 1003.25 1003.29 1003.41 1003.53 1003.77 1004.13 1004.21 1004.41 1004.73 1005.17 1005.57 1005.89 1006.01 1006.25 1006.45 1006.69 1007.01 1007.45 1008.01 1008.69 1009.61 1010.17 1010.65 1011.01 1011.45 1011.81 1012.25 1012.81 1013.41 1013.85
1006.73 1006.21 1005.69 1005.29 1005.05 1004.77 1004.45 1004.09 1003.77 1003.57 1003.25 1003.13 1003.13 1003.17 1003.29 1003.49 1003.61 1003.73 1003.89 1004.09 1004.33 1004.77 1005.17 1005.41 1005.77 1006.09 1006.25 1006.45 1006.73 1007.09 1007.61 1008.41 1009.33 1009.97 1010.49 1010.97 1011.53 1011.93 1012.37 1012.85 1013.25 1013.65
1006.85 1006.41 1005.81 1005.25 1004.97 1004.85 1004.57 1004.25 1003.85 1003.49 1003.33 1003.25 1003.21 1003.13 1003.21 1003.25 1003.25 1003.33 1003.53 1003.81 1004.05 1004.25 1004.53 1004.93 1005.53 1005.81 1006.01 1006.25 1006.49 1006.81 1007.37 1008.25 1009.09 1009.77 1010.29 1010.73 1011.17 1011.65 1012.13 1012.69 1013.21 1013.53
1006.69 1006.49 1006.01 1005.45 1005.17 1005.01 1004.65 1004.25 1003.85 1003.41 1003.21 1003.17 1003.13 1003.01 1003.01 1003.05 1003.21 1003.37 1003.45 1003.53 1003.73 1003.93 1004.09 1004.49 1005.05 1005.41 1005.61 1005.89 1006.13 1006.37 1006.81 1007.89 1008.69 1009.41 1010.13 1010.65 1011.25 1011.61 1012.05 1012.53 1013.01 1013.29
1006.85 1006.65 1006.45 1006.01 1005.57 1004.97 1004.57 1004.09 1003.57 1003.21 1002.97 1003.09 1003.13 1003.13 1003.09 1003.17 1003.29 1003.33 1003.41 1003.53 1003.61 1003.85 1004.13 1004.41 1004.81 1005.09 1005.09 1005.29 1005.53 1005.85 1006.49 1007.57 1008.21 1008.93 1009.69 1010.29 1010.77 1011.33 1011.85 1012.41 1012.85 1013.09
1006.69 1006.53 1006.29 1006.13 1005.57 1004.85 1004.21 1003.73 1003.37 1003.17 1002.97 1002.97 1003.05 1003.09 1003.09 1003.13 1003.25 1003.25 1003.29 1003.45 1003.65 1003.85 1004.05 1004.21 1004.69 1005.01 1004.93 1004.93 1005.13 1005.33 1006.01 1007.17 1007.81 1008.41 1009.13 1009.85 1010.45 1010.81 1011.41 1012.05 1012.41 1012.73
Wind_Speed
10 9 10 10 11 11 12 13 12 13 12 12 13 13 14 13 12 14 14 11 12 12 12 12 11 11 10 9 9 8 8 8 6 6 6 6 6 8 8 7 6 6
13 11 9 8 7 8 9 11 12 14 14 14 13 11 10 10 11 12 13 13 11 12 11 11 11 11 11 10 10 10 8 7 8 5 7 8 6 7 7 7 7 6
12 11 11 11 11 9 9 9 9 10 11 12 10 10 10 9 11 12 11 12 12 12 11 11 11 11 11 10 10 9 9 9 9 7 7 8 6 7 6 7 6 8
12 13 13 13 11 9 8 8 9 9 8 8 11 8 9 9 10 12 11 12 11 11 11 11 12 11 11 11 11 9 9 9 8 7 7 5 6 6 7 7 7 6
12 12 11 11 10 10 9 9 10 10 10 9 8 10 10 10 11 11 12 12 12 11 10 11 10 11 10 10 11 10 9 9 8 8 8 8 7 7 7 8 8 9
9 9 9 9 8 9 10 12 12 10 9 8 11 9 11 12 13 14 14 14 13 13 12 11 12 11 11 11 10 10 10 9 9 10 9 9 8 6 7 8 9 9
11 9 10 8 7 9 10 10 9 9 10 9 5 10 10 12 12 13 14 14 14 14 14 14 14 13 11 11 11 11 10 10 10 11 11 9 8 8 6 8 9 9
8 6 7 7 9 9 10 10 10 10 9 7 11 9 11 12 13 12 13 14 14 14 14 14 14 15 14 13 13 13 12 10 11 12 11 10 9 10 9 8 9 9
7 8 6 8 11 11 12 12 11 10 9 12 11 9 9 11 12 13 13 13 13 13 14 14 15 15 14 14 14 15 15 13 12 13 14 13 13 12 12 10 10 10
10 9 9 10 12 13 14 14 13 13 12 12 12 11 12 11 11 12 12 14 14 14 14 15 15 14 15 15 16 16 15 15 14 14 13 13 14 13 13 13 13 12
12 10 11 12 14 13 15 14 13 12 10 13 11 12 13 12 12 12 13 14 15 16 16 15 16 15 15 15 14 14 15 15 15 15 14 15 15 14 13 14 14 14
12 10 13 15 15 15 16 14 12 11 11 10 12 14 12 13 14 13 14 16 16 15 15 15 14 14 16 16 16 15 14 14 15 15 15 15 14 14 14 14 14 14
11 12 13 13 15 15 13 11 12 12 12 13 12 13 14 14 14 15 14 16 16 15 15 16 15 15 14 15 15 15 16 16 15 15 15 14 13 14 14 13 13 13
11 12 13 14 14 13 12 12 12 12 14 13 12 15 15 16 16 17 14 13 15 15 16 15 15 15 15 15 16 17 16 17 16 16 16 14 13 13 13 13 13 13
12 11 11 13 13 13 12 13 13 13 12 12 13 14 13 15 14 14 14 15 14 15 16 15 16 16 15 16 17 17 16 16 17 16 16 15 14 13 13 13 12 11
12 12 12 12 12 13 14 13 12 12 11 12 14 14 13 11 11 13 14 15 15 14 14 14 15 13 15 22 19 16 16 13 12 14 15 14 15 14 13 13 13 11
12 11 12 13 13 12 11 11 12 11 12 13 12 11 12 12 12 13 15 14 15 15 16 15 14 13 20 25 25 24 17 15 15 14 14 14 14 15 15 14 12 11
13 13 12 13 11 12 11 11 10 10 11 11 11 11 11 9 13 16 14 13 12 14 15 15 14 13 22 25 26 26 21 15 14 13 13 14 14 14 13 12 14 13
15 13 12 12 12 11 10 8 9 10 11 10 12 10 9 12 15 12 13 13 13 14 15 14 12 16 23 25 25 26 25 18 12 13 14 14 14 14 14 13 10 9
15 14 14 13 11 9 8 8 8 11 10 9 8 7 10 11 11 13 12 12 14 14 13 12 12 15 23 25 25 25 25 21 12 13 13 13 14 13 12 15 12 11
14 14 14 13 11 10 8 8 9 9 8 8 8 10 12 13 13 13 13 13 13 12 11 12 12 17 23 25 25 25 25 20 11 11 10 10 10 11 11 8 11 10
14 14 14 13 12 10 8 9 8 8 9 7 7 8 7 7 8 10 12 13 12 12 12 12 10 19 23 25 26 25 26 15 11 11 10 9 10 8 8 8 7 8
13 14 14 13 12 11 10 9 9 9 7 4 6 8 8 10 11 11 10 11 12 13 13 12 9 17 23 24 25 27 20 11 11 10 10 9 7 9 8 8 8 9
14 13 14 13 12 11 12 10 8 6 6 5 8 8 9 10 8 8 9 9 12 13 14 12 11 15 24 25 26 28 18 13 12 11 10 10 7 6 6 7 11 19
11 12 12 13 12 12 10 10 9 8 6 4 6 6 7 6 6 7 8 8 9 11 11 13 10 14 25 26 28 30 19 12 12 12 12 11 9 7 8 7 9 14
10 11 12 12 13 12 10 9 7 5 6 6 6 6 6 5 6 7 9 8 7 9 10 12 11 11 17 26 27 29 24 13 11 13 13 12 12 13 11 9 8 9
Wind_Direction
205 206 206 202 203 197 186 187 187 186 190 190 195 199 196 196 180 187 190 185 189 188 185 182 179 178 178 176 175 173 180 187 181 176 181 171 171 168 170 165 166 165
205 204 207 208 213 209 202 195 190 189 190 192 197 192 193 180 186 182 187 188 185 189 183 181 182 180 176 176 174 174 176 177 183 173 175 178 175 172 172 166 161 147
201 201 203 205 206 209 205 201 200 202 197 198 189 186 184 177 175 184 184 185 186 185 183 182 181 182 178 176 173 177 179 177 182 175 175 182 167 175 168 160 157 164
212 209 204 203 200 202 201 201 210 207 201 190 194 179 170 178 176 177 181 183 183 184 183 181 183 180 179 176 172 181 180 182 177 164 171 165 173 166 165 161 156 156
214 215 214 210 201 189 187 203 209 210 204 196 171 175 173 167 171 177 180 184 183 183 180 183 180 181 177 177 177 178 177 176 168 168 173 176 176 170 168 162 163 165
229 225 223 219 212 200 197 202 204 204 206 198 197 177 181 175 179 180 180 181 183 180 179 179 180 181 179 178 178 184 176 175 174 170 176 177 173 175 167 170 165 169
223 216 220 214 213 210 211 210 203 203 205 206 173 197 178 182 181 182 182 183 181 183 181 180 180 180 181 178 181 182 181 179 171 177 178 176 166 173 173 170 174 174
247 237 224 215 218 216 220 213 206 203 198 186 202 196 185 186 185 182 184 183 184 186 184 183 183 182 180 179 181 182 182 180 178 178 179 174 172 178 177 178 175 175
268 254 241 227 220 219 218 213 212 208 193 198 197 190 193 191 189 185 183 183 186 187 186 187 186 185 183 182 185 183 181 182 182 180 180 178 181 184 180 176 176 180
238 236 233 232 228 226 224 218 211 205 196 201 198 186 189 192 188 187 182 185 187 187 190 190 188 187 185 187 187 185 184 183 180 184 185 185 184 182 180 180 182 178
243 232 231 231 231 231 230 224 217 213 202 203 193 197 194 185 190 185 186 186 189 191 191 192 192 188 185 187 189 189 186 182 182 184 187 187 187 185 182 182 183 187
247 240 237 235 233 234 232 225 219 214 208 205 199 198 192 196 191 188 189 191 192 191 191 192 189 190 191 189 187 186 187 186 185 186 188 187 186 185 184 184 185 184
253 245 240 240 238 237 235 226 220 214 206 207 202 201 196 195 195 196 197 192 192 188 190 188 190 192 192 191 190 188 188 186 186 188 188 187 188 185 184 185 185 183
263 253 248 244 242 239 234 228 221 215 212 207 197 204 203 199 196 197 198 196 192 190 190 186 186 191 193 193 192 191 189 191 188 187 186 187 185 184 184 185 184 183
275 266 257 254 249 243 235 228 222 219 214 206 204 208 207 205 199 195 192 197 199 194 188 186 189 192 192 191 191 193 193 191 189 187 185 184 183 184 183 182 183 182
284 275 268 259 252 244 239 231 225 219 212 210 210 209 207 201 197 197 198 198 196 198 194 192 196 196 192 191 188 189 189 189 187 189 186 185 181 181 182 184 183 179
310 290 278 268 258 250 244 235 226 218 214 214 212 206 205 199 193 197 201 200 199 196 197 201 201 198 189 190 191 187 183 185 186 188 188 185 184 182 183 181 177 170
326 310 293 278 268 256 246 236 228 219 217 213 208 205 203 193 200 204 202 199 200 201 203 204 204 194 190 192 191 189 185 185 186 185 185 188 186 185 182 177 157 144
334 325 307 290 274 262 255 241 229 224 220 212 210 205 191 200 207 199 203 201 199 203 207 206 207 195 193 192 192 191 186 179 186 186 186 190 184 183 179 174 157 149
335 331 320 304 288 274 259 243 232 228 224 216 208 192 201 206 202 204 202 199 202 205 207 206 207 196 194 193 192 190 186 182 187 184 189 189 187 181 164 147 160 155
334 331 323 314 301 284 268 252 241 239 228 215 204 202 203 203 201 202 203 201 201 200 203 205 207 195 195 193 191 189 187 180 180 183 184 187 164 152 152 150 160 165
330 327 323 317 308 295 279 264 252 239 231 220 210 214 214 210 213 208 205 203 200 196 202 209 202 195 196 193 190 188 184 178 177 178 179 177 177 163 157 159 156 154
326 322 320 317 311 300 282 269 260 251 246 224 218 217 210 210 212 207 205 202 199 199 201 204 195 195 195 193 191 188 184 172 171 174 177 175 159 165 153 159 165 165
322 321 317 313 308 297 282 273 262 260 248 222 223 221 220 220 210 211 209 204 202 201 200 197 194 193 195 194 191 189 179 167 170 172 172 170 154 146 150 157 175 178
316 314 310 305 300 291 279 272 264 254 248 221 230 232 233 222 207 214 213 208 209 204 194 197 193 193 195 193 193 194 181 163 168 174 171 175 166 139 153 155 175 185
313 310 305 301 296 291 284 269 265 258 240 226 230 224 228 209 210 214 211 212 201 199 201 199 192 193 199 196 195 195 179 163 169 172 176 171 167 169 161 167 169 175